Location: downtown San Diego
(32.7310°N, 117.1990°W)
Time: 13:26:31
(UTC-07:00)

Helios 1A - Pass Details

Date: 12 July 2018
Orbit: 585 x 604 km, 98.2° (Epoch: 14 September)

Event Time Altitude Azimuth Distance (km) Brightness Sun altitude
Exits shadow 22:29:56 63° 13° (NNE) 674 3.3 -25.4°
Drops below altitude 10° 22:33:35 10° 351° (N) 1,953 6.4 -25.9°
Sets 22:35:46 0° 350° (N) 2,861 7.5 -26.2°
